Regional Weather Roundup
Issued by NWS

Home | Current Version | Previous Version | Graphics & Text | Print | Product List | Glossary On
Versions: 1 2 3 4 5 6 7 8 9 10 11 12 13 14 15 16 17 18 19 20 21 22 23 24 25 26 27 28
000
ASUS45 KPSR 300210
RWRAZ

ARIZONA HOURLY REGIONAL WEATHER ROUNDUP
NATIONAL WEATHER SERVICE PHOENIX AZ
700 PM MST MON AUG 29 2016

NOTE: FAIR INDICATES FEW OR NO CLOUDS BELOW 12,000 FEET WITH NO
SIGNIFICANT WEATHER AND/OR OBSTRUCTIONS TO VISIBILITY.

AZZ001>003-036-300300-
NORTHWEST ARIZONA

CITY           SKY/WX    TMP DP  RH WIND       PRES   REMARKS
BULLHEAD CITY  CLEAR    108  36   8 N9        29.75R HX 101
KINGMAN        CLEAR     91  43  18 N7        30.00S
$$

AZZ004>008-015-016-018-300300-
NORTH CENTRAL ARIZONA

CITY           SKY/WX    TMP DP  RH WIND       PRES   REMARKS
GRAND CANYON   CLEAR     71  38  29 NE6       30.30S
PRESCOTT       PTCLDY    77  52  41 NE6       30.14S
FLAGSTAFF      CLEAR     65  44  46 CALM      30.31R
PAYSON         CLEAR     79  37  22 NE9G15    30.18R
PAGE           CLEAR     86  34  15 S5        30.09S
$$

AZZ009>014-017-300300-
NORTHEAST ARIZONA

CITY           SKY/WX    TMP DP  RH WIND       PRES   REMARKS
WINSLOW        CLEAR     81  43  26 NW6       30.14S
SAINT JOHNS    PTCLDY    78  38  23 N3        30.18S
WINDOW ROCK    PTCLDY    72  34  24 NE10      30.29S
SHOW LOW       PTCLDY    68  37  32 N5        30.26S
$$

AZZ023-300300-
GREATER PHOENIX AREA

CITY           SKY/WX    TMP DP  RH WIND       PRES   REMARKS
PHOENIX        PTCLDY   101  42  13 S10       29.77S
BUCKEYE        CLEAR     97  50  20 S3        29.79R
GLENDALE       PTCLDY   104  43  12 CALM      29.79R
LUKE AFB       PTCLDY   102  45  14 NE2       29.76S
DEER VALLEY    CLEAR    100  42  13 NE8       29.80S
SCOTTSDALE     CLEAR    100  42  13 CALM      29.82R
MESA-FALCON    PTCLDY   N/A N/A N/A S9        29.78S
MESA-GATEWAY   PTCLDY    99  41  13 S7        29.82
CHANDLER       PTCLDY    99  39  12 SW7       29.80S
$$

AZZ027-028-300300-
SOUTHWEST MARICOPA COUNTY AND PINAL COUNTY

CITY           SKY/WX    TMP DP  RH WIND       PRES   REMARKS
CASA GRANDE    CLEAR     97  36  11 NE6       29.84S
GILA BEND      CLEAR    102  40  11 E8        29.75F
$$

AZZ503-504-507>509-300300-
SOUTHEAST ARIZONA

CITY           SKY/WX    TMP DP  RH WIND       PRES   REMARKS
TUCSON         CLEAR     95  37  13 N6        29.91S
DAVIS-MONTHAN  CLEAR     92  41  16 NW8       29.90S
RYAN FIELD     CLEAR     91  43  18 NW9       29.90S
NOGALES        CLEAR     84  45  25 N3        29.99S
SIERRA VISTA   MOCLDY    83  47  27 E5        30.08R
DOUGLAS        PTCLDY    81  51  35 E7        30.04R
SAFFORD        CLEAR     91  42  18 SE8       29.95R
$$

AZZ020-021-025-026-031-300300-
SOUTHWEST ARIZONA

CITY           SKY/WX    TMP DP  RH WIND       PRES   REMARKS
YUMA           PTCLDY   106  46  13 SW7       29.71S HX 102
$$

CAZ031-033-041-043-047-048-061-300300-
SOUTHERN CALIFORNIA

CITY           SKY/WX    TMP DP  RH WIND       PRES   REMARKS
DOWNTOWN L.A.  CLEAR     74  58  57 VRB3      29.83S
L.A. AIRPORT   PTCLDY    70  60  70 W13       29.84S
SAN DIEGO      PTCLDY    73  64  73 W9        29.86S
BURBANK        CLEAR     87  59  38 SE7       29.83S
ONTARIO        PTCLDY    89  56  32 W9        29.83S
RIVERSIDE      CLEAR     89  59  36 W8        29.84R
PALM SPRINGS   CLEAR    107  39  10 VRB5      29.75S HX 101
EL CENTRO NAS  PTCLDY   106  42  11 SW6       29.72S HX 101
IMPERIAL       CLEAR    107  51  15 SW8       29.70S HX 104
BLYTHE         CLEAR    106  45  12 S6        29.73F HX 101
NEEDLES        CLEAR    108  40  10 NW6       29.77S HX 102
$$

NVZ020-UTZ003-300300-
SOUTHERN NEVADA-UTAH

CITY           SKY/WX    TMP DP  RH WIND       PRES   REMARKS
LAS VEGAS      PTCLDY   101  28   7 N3        29.89S
SALT LAKE CITY MOCLDY    84  38  19 W7        30.11R
$$

NMZ009-TXZ055-300300-
NEW MEXICO-WEST TEXAS

CITY           SKY/WX    TMP DP  RH WIND       PRES   REMARKS
ALBUQUERQUE    PTCLDY    70  46  42 E20G28    30.23R
EL PASO        MOCLDY    80  57  45 E17       30.10R
$$


........................KEY........................
SKY/WX - SKY CONDITION/WEATHER
TMP    - TEMPERATURE IN FAHRENHEIT
DP     - DEW POINT IN FAHRENHEIT
RH     - RELATIVE HUMIDITY IN PERCENT
WIND   - DIRECTION AND SPEED IN MILES PER HOUR (MPH)
VRB    - VARIABLE WIND DIRECTION
PRES   - MEAN SEA LEVEL PRESSURE IN INCHES OF MERCURY
         F - FALLING PRESSURE   R - RISING PRESSURE
         S - STEADY PRESSURE
VSB    - VISIBILITY IN MILES
HX     - HEAT INDEX IN FAHRENHEIT
WCI    - WIND CHILL INDEX IN FAHRENHEIT
TC     - TEMPERATURE IN CELSIUS WHICH IS ALSO KNOWN AS
         TEMPERATURE IN CENTIGRADE
AFB    - AIR FORCE BASE
         LUKE AFB IS LUKE AIR FORCE BASE
         DAVIS-MONTHAN IS DAVIS-MONTHAN AIR FORCE BASE
NAS    - NAVAL AIR STATION
         EL CENTRO NAS IS EL CENTRO NAVAL AIR STATION
N/A    - NOT AVAILABLE





USA.gov is the U.S. government's official web portal to all federal, state and local government web resources and services.